Weather in Tit-Ary

Russia / Sakha (Yakutia) Republic     71°59′15″N   127°05′27″E
temp.,
°C
wind,
m/s
gust,
m/s
humid.,
%
clouds,
%
prec.,
mm/h
press.,
hPa
HPBL,
m
8 may, sat
sat800:00−7ene229692 0.0 101915
03:00−10ne229867 0.0 102010
06:00−10ne119867 0.0 102010
09:00−5ese11938 0.0 102094
12:00−4se128980 0.0 1019317
15:00−3se238897 0.0 1019432
18:00−3se2391100 0.0 1018235
21:00−3ese2294100 0.0 101845
9 may, sun
sun900:00−7ese2296100 0.0 101710
03:00−8ese2297100 0.0 101613
06:00−5e2395100 0.0 101689
09:00−3e4890100 0.0 1016386
12:00−2e71091100 0.0 1016592
15:00−1e6889100 0.1 1017696
18:00−1ene5892100 0.1 1019591
21:00−2nne3795100 0.1 1020228
10 may, mon
mon1000:00−4n349784 0.1 102159
03:00−4n359774 0.3 102267
06:00−3nne489692 0.2 1023408
09:00−2ne699386 0.4 1024626
12:00−1ne7885100 0.1 1026837
15:00−1nne6991100 0.3 1027691
18:00−2nne699499 0.3 1028623
21:00−4n599496 0.5 1029471
11 may, tue
tue1100:00−5nnw589593 0.2 1029328
03:00−9nnw489694 0.4 1030184
06:00−9nnw489694 0.2 1030248
09:00−7nnw699398 0.4 1030458
12:00−5n688699 0.2 1030686
15:00−4n6784100 0.3 1029714
18:00−5nne5787100 0.1 1029675
21:00−6nne4587100 0.1 1029280
12 may, wed
wed1200:00−7n3493100 0.1 102998
03:00−6n349295 0.1 1028119
06:00−9nne229592 0.0 102823
09:00−6nne229261 0.1 1027193
12:00−5ne118782 0.0 1025292
15:00−5e118479 0.0 1025357
18:00−5se119134 0.0 102419
21:00−9e019593 0.0 102310